Regional Weather Roundup
Issued by NWS

Home | Current Version | Previous Version | Text Only | Print | Product List | Glossary On
Versions: 1 2 3 4 5 6 7 8 9 10 11 12 13 14 15 16 17 18 19 20 21 22 23 24 25 26 27 28 29 30 31 32 33 34 35 36 37 38 39 40 41 42 43 44 45 46 47 48 49 50
000
ASUS46 KLOX 171712
RWRCA

SOUTHERN CALIFORNIA WEATHER ROUNDUP
NATIONAL WEATHER SERVICE OXNARD CALIFORNIA
1000 AM PDT WED SEP 17 2014

NOTE: "FAIR" INDICATES FEW OR NO CLOUDS BELOW 12,000 FEET WITH NO
SIGNIFICANT WEATHER AND/OR OBSTRUCTIONS TO VISIBILITY.

  -  STATIONS PRECEEDED BY AN ASTERISK (*) ARE NOT NWS OR FAA
     STATIONS AND ARE NOT SUBJECT TO NWS AND FAA QUALITY CONTROL.

CAZ041-042-087-171800-
LA AND ORANGE COUNTY COASTAL AREAS


CITY           SKY/WX    TMP DP  RH WIND       PRES   REMARKS
L.A. DOWNTOWN  SUNNY     92  64  39 S3        29.74S HX  93
L.A. AIRPORT   MOSUNNY   83  61  47 W9        29.76R
LONG BEACH     SUNNY     89  66  46 S3        29.75R HX  91

CITY           SKY/WX    TMP DP  RH WIND       PRES   REMARKS
AVALON           N/A     77 N/A N/A MISG        N/A
FULLERTON      SUNNY     93  61  34 SE3       29.74R HX  93
*GETTY CENTER    N/A    N/A N/A N/A SE3         N/A
HAWTHORNE      SUNNY     89  60  37 S5        29.75S
*LEO CARRILLO    N/A     79  64  59 W7          N/A
*LOS ALAMITOS  SUNNY     88  66  48 VRB3      29.75R HX  90
*REDONDO BEACH   N/A     80  65  60 SW3       29.76R
SANTA ANA      MOSUNNY   93  62  35 SW5       29.75R HX  93
STA MONICA APT SUNNY     84  63  49 SW7       29.76R
*STA MON PIER    N/A     77  70  78 CALM      29.75S
TORRANCE       SUNNY     88  50  27 NW10      29.76R
*UCLA            N/A     90  59  35 SE3       29.74S

$$

CAZ547-548-048-171800-
LA COUNTY VALLEYS AND INLAND EMPIRE


CITY           SKY/WX    TMP DP  RH WIND       PRES   REMARKS
BURBANK        SUNNY     91  60  35 E8        29.78R HX  90
VAN NUYS       SUNNY     92  61  35 SE8       29.78R HX  92

CITY           SKY/WX    TMP DP  RH WIND       PRES   REMARKS
CORONA AIRPORT SUNNY     92  67  43 CALM      29.78S HX  95
*CHATSWORTH      N/A     93  66  41 E3        29.71R HX  96
CHINO          MOSUNNY   93  66  40 E3        29.79S HX  96
*CLAREMONT       N/A     91  59  33 SW7         N/A  HX  90
MARCH AFB      SUNNY     89  64  43 N5        29.84R HX  91
*NORTHRIDGE      N/A     93  59  31 E3          N/A  HX  92
ONTARIO        MOSUNNY   91  63  39 S5        29.79S HX  92
*PASADENA        N/A     97  64  34 CALM        N/A  HX  99
POMONA         SUNNY     91  63  38 SW5       29.82  HX  92
RIVERSIDE      SUNNY     91  63  39 CALM      29.79S HX  92
SAN BERNARDINO MOSUNNY   90  59  35 CALM      29.81S
*SAN GABRIEL     N/A     93  59  31 CALM      29.70S HX  92
*SAN RAFAEL HI   N/A     96  65  36 S7          N/A  HX  99
*SAUGUS          N/A     97  56  25 N2          N/A  HX  95
*WHITEMAN AP   SUNNY     90  61  37 SE7       29.82S
*WHITTIER HILL   N/A     99  66  33 S5          N/A  HX 103
*WOODLAND HILL   N/A    N/A N/A N/A NE3         N/A

$$

CAZ054-055-171800-
LA AND SAN BERNARDINO COUNTY MOUNTAINS


CITY           SKY/WX    TMP DP  RH WIND       PRES   REMARKS
*ACTON           N/A     80  53  38 CALM        N/A
*BIG BEAR AIRP SUNNY     68  50  52 E8        30.19S
*BIG PINES       N/A     74  48  39 CALM        N/A
MT WILSON NWS    N/A     79  59  50 MISG        N/A
SANDBERG       SUNNY     84  51  31 SW10      30.03S

$$

CAZ028-029-059-060-099-171800-
ANTELOPE VALLEY AND SURROUNDING AREAS


CITY           SKY/WX    TMP DP  RH WIND       PRES   REMARKS
LANCASTER      SUNNY     87  48  25 E6        29.89R
PALMDALE       SUNNY     85  54  34 NE6       29.90S
*POPPY PARK      N/A     93  58  30 S9          N/A  HX  92

CITY           SKY/WX    TMP DP  RH WIND       PRES   REMARKS
29 PALMS       SUNNY     84  63  49 SE6       29.95S
BARSTOW/DAGGET SUNNY     86  63  45 NE7       29.87R
BISHOP         SUNNY     81  48  31 CALM      29.97F
CHINA LAKE     SUNNY     88  50  27 VRB5      29.86S
EDWARDS AFB    MOSUNNY   84  44  23 VRB3      29.87S
MOJAVE         FAIR      84  43  23 CALM      29.91S
NEEDLES        SUNNY     90  65  43 CALM      29.83S HX  92
VICTORVILLE    SUNNY     82  61  47 SE5       29.92S

$$

CAZ039-040-171800-
VENTURA AND SANTA BARBARA COUNTY COAST


CITY           SKY/WX    TMP DP  RH WIND       PRES   REMARKS
CAMARILLO      SUNNY     81  63  54 SW7       29.76R
NWS OXNARD       N/A     76  63  64 CALM      29.76R
OXNARD AIRPORT SUNNY     74  62  66 W12       29.76R
*POINT MUGU    SUNNY     82  63  52 NW6       29.77R
SBA APT/GOLETA SUNNY     75  63  66 SE6       29.75R
*SANTA BARBARA   N/A     78  62  58 CALM      29.83S
*VENTURA         N/A     76  64  67 CALM      29.81S

$$

CAZ044-045-171800-
VENTURA COUNTY VALLEYS


CITY           SKY/WX    TMP DP  RH WIND       PRES   REMARKS
*SIMI VALLEY     N/A     93  64  37 E3        29.69R HX  94
*OJAI            N/A     96  56  26 W1        29.68S HX  94
*FILLMORE        N/A     94  57  29 CALM      29.64S HX  92

$$

CAZ053-171800-
VENTURA COUNTY MOUNTAINS


CITY           SKY/WX    TMP DP  RH WIND       PRES   REMARKS
*LOCKWOOD VLY    N/A     77  41  27 MISG        N/A
*ROSE VALLEY     N/A     90  52  27 MISG        N/A

$$

CAZ034-035-036-171800-
CENTRAL COAST AND SANTA YNEZ VALLEY


CITY           SKY/WX    TMP DP  RH WIND       PRES   REMARKS
SAN LUIS OBISP SUNNY     68  57  68 W3        29.84R
SANTA MARIA    MOSUNNY   68  58  70 W6        29.84S

CITY           SKY/WX    TMP DP  RH WIND       PRES   REMARKS
*CAL POLY SLO    N/A     64  63  94 CALM        N/A
*LOMPOC        MOSUNNY   64  57  77 CALM      29.85R
*PISMO BEACH     N/A     60  58  94 SW3       29.85R
*SANTA YNEZ    FAIR      68  54  60 CALM      29.83S

$$

CAZ037-038-051-171800-
SAN LUIS OBISPO COUNTY INTERIOR AND CUYAMA VALLEY


CITY           SKY/WX    TMP DP  RH WIND       PRES   REMARKS
*CUYAMA          N/A     82  47  28 NE3       29.73S
PASO ROBLES    SUNNY     71  50  47 CALM      29.84S

$$

CAZ032-033-061-171800-
SOUTHERN DESERTS


CITY           SKY/WX    TMP DP  RH WIND       PRES   REMARKS
BLYTHE         CLOUDY    87  67  51 CALM      29.79R HX  90
IMPERIAL       SUNNY     92  67  43 NE5       29.75S HX  95
PALM SPRINGS   MOSUNNY   92  67  43 VRB5      29.80S HX  95
THERMAL        SUNNY     94  66  39 VRB3      29.74S HX  97

$$

ELSEWHERE ACROSS THE WESTERN UNITED STATES AND MEXICO


CITY           SKY/WX    TMP DP  RH WIND       PRES   REMARKS
DENVER, CO     PTSUNNY   80  37  21 CALM      30.10F
GRAND CANYON,  MOSUNNY   70  52  52 E7        30.21S
HONOLULU, HI   PTCLDY    79  72  78 CALM      29.95R
KAHULUI, MAUI  MOSUNNY   73  67  81 CALM      29.96R
LAKE TAHOE, CA SUNNY     73  34  23 SW12G25   30.09S
LAS VEGAS, NV  MOSUNNY   86  60  41 SE6       29.87S
MAMMOTH LAKES, FAIR      72  39  30 E8        30.17F
MEXICO CITY, M PTSUNNY   68  50  52 S3        30.37S
PHOENIX, AZ    CLOUDY    87  66  49 E9        29.82R
PORTLAND, OR   PTSUNNY   65  55  70 CALM      29.72F
RENO, NV       PTSUNNY   83  35  18 S17G25    29.96F
SALT LAKE CITY MOSUNNY   83  44  25 SE12      29.98S
SAN DIEGO, CA  MOSUNNY   84  66  54 W7        29.76R
SAN FRANCISCO, MOSUNNY   68  59  73 E5        29.82F
SAN JOSE, CA   MOSUNNY   67  57  70 CALM      29.82F
SEATTLE, WA    CLOUDY    62  56  80 W5        29.80R
TIJUANA, MEX   SUNNY     95  57  28 CALM      29.78S HX  94

$$

STATION/POSITION TIME  TEMP    WIND        PRES    VSBY  WAVE
                       AIR SEA DIR/SP/G                  HT/PER
                 (UTC) (F)     (DEG/KT/KT) (MB)    (MI)  (FT/S)
POINT ARGUELLO B NOT AVBL
WEST SANTA BARBA 1700   60 61  310/ 19/ 23 1008.3R         5/17
POINT CONCEPTION NOT AVBL
EAST SANTA BARBA 1700          260/ 10       N/A
SANTA MONICA BAY 1700   72 74  350/  4/  4 1007.5R         4/17


USA.gov is the U.S. government's official web portal to all federal, state and local government web resources and services.